This is the latest recevied weather packets stored in our database for station/object N2XP-2. If no packets are shown the sender has not sent any weather packets the latest 10 day(s).
| Time | Temp. | Humidity | Pressure | Rain* | Wind** | Luminosity | Snow |
|---|---|---|---|---|---|---|---|
| 1778085657 | 21.11° C | 74% | 1009.6 hPa | 0 mm | 1.34 m/s, 218° | - | - |
| 1778085357 | 21.11° C | 73% | 1010 hPa | 0 mm | 0.45 m/s, 285° | - | - |
| 1778085058 | 21.11° C | 74% | 1009.9 hPa | 0 mm | 0.89 m/s, 195° | - | - |
| 1778084811 | 21.11° C | 74% | 1010 hPa | 0 mm | 0 m/s | - | - |
| 1778084811 | 21.11° C | 73% | 1010 hPa | 0 mm | 0.89 m/s, 249° | - | - |
| 1778084755 | 21.11° C | 74% | 1010 hPa | 0 mm | 0 m/s | - | - |
| 1778084456 | 21.11° C | 73% | 1010 hPa | 0 mm | 0.89 m/s, 249° | - | - |
| 1778084318 | 21.67° C | 70% | 1010.1 hPa | 0 mm | 0.89 m/s, 200° | - | - |
| 1778084311 | 21.67° C | 70% | 1010 hPa | 0 mm | 1.79 m/s, 235° | - | - |
| 1778084306 | 21.67° C | 69% | 1010 hPa | 0 mm | 1.34 m/s, 159° | - | - |
| 1778084157 | 21.11° C | 73% | 1010 hPa | 0 mm | 1.34 m/s, 219° | - | - |
| 1778083853 | 21.11° C | 72% | 1010 hPa | 0 mm | 1.79 m/s, 210° | - | - |
| 1778083554 | 21.11° C | 72% | 1010 hPa | 0 mm | 0.45 m/s, 249° | - | - |
| 1778083255 | 21.67° C | 70% | 1010.1 hPa | 0 mm | 0.89 m/s, 200° | - | - |
| 1778082952 | 21.67° C | 70% | 1010 hPa | 0 mm | 1.79 m/s, 235° | - | - |
| 1778082653 | 21.67° C | 69% | 1010 hPa | 0 mm | 1.34 m/s, 159° | - | - |
| 1778082393 | 22.22° C | 68% | 1010.1 hPa | 0 mm | 1.79 m/s, 235° | - | - |
| 1778082353 | 22.22° C | 68% | 1010.1 hPa | 0 mm | 0.89 m/s, 132° | - | - |
| 1778082050 | 22.22° C | 68% | 1010.1 hPa | 0 mm | 1.34 m/s, 203° | - | - |
| 1778081751 | 22.22° C | 67% | 1010 hPa | 0 mm | 0.45 m/s, 70° | - | - |
| 1778081452 | 22.22° C | 67% | 1009.9 hPa | 0 mm | 0.89 m/s, 177° | - | - |
| 1778081373 | 21.67° C | 68% | 1010 hPa | 0 mm | 1.34 m/s, 203° | - | - |
| 1778081148 | 22.22° C | 68% | 1010.1 hPa | 0 mm | 1.79 m/s, 235° | - | - |
| 1778081055 | 21.67° C | 68% | 1010.1 hPa | 0 mm | 1.79 m/s, 160° | - | - |
| 1778080849 | 21.67° C | 68% | 1010 hPa | 0 mm | 1.34 m/s, 203° | - | - |
* Rain latest hour (hover to see other rain measurements)
** Current wind speed in m/s (hover to see current wind gust speed)